Albuquerque Double Eagle, NM

12:18 PM MDT on September 25, 2017 (GMT -0600)
Double Eagle Ii

Weather History for KAEG - April, 2013

Change the Weather History Date:

Friday, April 5, 2013

  Actual Average (KABQ) Record (KABQ)
Temperature  
Mean Temperature 58 °F -  
Max Temperature 75 °F 68 °F 81 °F (1972)
Min Temperature 41 °F 37 °F 19 °F (1945)
Degree Days  
Heating Degree Days 7    
Growing Degree Days 8 (Base 50)    
Moisture  
Dew Point 8 °F    
Average Humidity 18    
Maximum Humidity 57    
Minimum Humidity 8    
Precipitation  
Precipitation 0.00 in - - ()
Sea Level Pressure  
Sea Level Pressure 30.08 in    
Wind  
Wind Speed 4 mph (SSW)    
Max Wind Speed 29 mph    
Max Gust Speed -    
Visibility 10 miles    
Events      
Averages and records for this station are not official NWS values.
T = Trace of Precipitation, MM = Missing Value Source: NWS Daily Summary

Daily Weather History Graph

Daily Weather History Graph

Search for Another Location

Airport or City:

Trip Planner

Search our weather history database for the weather conditions in past years. The results will help you decide how hot, cold, wet, or windy it might be!

Date:

Astronomy

Apr. 05, 2013 Rise Set
Actual Time 6:47 AM MDT 7:32 PM MDT
Civil Twilight 6:22 AM MDT 7:57 PM MDT
Nautical Twilight 5:52 AM MDT 8:28 PM MDT
Astronomical Twilight 5:21 AM MDT 8:59 PM MDT
Moon 3:46 AM MDT (4/5) 3:08 PM MDT (4/5)
Length of Visible Light 13h 35m
Length of Day
12h 44m
Waning Crescent, 23% of the Moon is Illuminated
Apr 5
Waning Crescent
Apr 10
New
Apr 18
First Quarter
Apr 25
Full
May 2
Last Quarter

Hourly Weather History & Observations

Time (MDT) Temp. Windchill Dew Point Humidity Pressure Visibility Wind Dir Wind Speed Gust Speed Precip Events Conditions
12:15 AM 46.4 °F 45.2 °F 1.4 °F 16% 30.15 in 10.0 mi SSE 3.5 mph - N/A   Clear
12:35 AM 50.0 °F - 3.2 °F 15% 30.15 in 10.0 mi Calm Calm - N/A   Clear
12:55 AM 50.0 °F - 5.0 °F 16% 30.15 in 10.0 mi Calm Calm - N/A   Clear
1:15 AM 50.0 °F - 5.0 °F 16% 30.14 in 10.0 mi SSE 3.5 mph - N/A   Clear
1:35 AM 48.2 °F - 5.0 °F 17% 30.14 in 10.0 mi Calm Calm - N/A   Clear
1:55 AM 48.2 °F - 3.2 °F 16% 30.14 in 10.0 mi Calm Calm - N/A   Clear
2:15 AM 46.4 °F - 1.4 °F 16% 30.13 in 10.0 mi Calm Calm - N/A   Clear
2:35 AM 48.2 °F - 5.0 °F 17% 30.13 in 10.0 mi Calm Calm - N/A   Clear
2:55 AM 46.4 °F - 5.0 °F 18% 30.12 in 10.0 mi Calm Calm - N/A   Clear
3:15 AM 48.2 °F - 5.0 °F 17% 30.12 in 10.0 mi Calm Calm - N/A   Clear
3:35 AM 44.6 °F - 3.2 °F 18% 30.12 in 10.0 mi Calm Calm - N/A   Clear
3:55 AM 44.6 °F - 3.2 °F 18% 30.12 in 10.0 mi Calm Calm - N/A   Clear
4:15 AM 46.4 °F - 5.0 °F 18% 30.12 in 10.0 mi Calm Calm - N/A   Clear
4:35 AM 42.8 °F - 1.4 °F 18% 30.11 in 10.0 mi Calm Calm - N/A   Clear
4:55 AM 44.6 °F 43.1 °F 5.0 °F 20% 30.12 in 10.0 mi SSE 3.5 mph - N/A   Clear
5:15 AM 42.8 °F 41.1 °F 1.4 °F 18% 30.12 in 10.0 mi SW 3.5 mph - N/A   Clear
5:35 AM 42.8 °F - 3.2 °F 19% 30.12 in 10.0 mi Calm Calm - N/A   Clear
5:50 AM 42.8 °F - 3.2 °F 19% 30.12 in 10.0 mi Calm Calm - N/A   Clear
6:50 AM 42.8 °F - 5.0 °F 21% 30.12 in 10.0 mi Calm Calm - N/A   Mostly Cloudy
7:50 AM 41.0 °F - 1.4 °F 19% 30.14 in 10.0 mi Calm Calm - N/A   Mostly Cloudy
8:50 AM 51.8 °F - 6.8 °F 16% 30.14 in 10.0 mi Calm Calm - N/A   Mostly Cloudy
9:50 AM 57.2 °F - 8.6 °F 14% 30.13 in 10.0 mi ESE 3.5 mph - N/A   Mostly Cloudy
10:50 AM 60.8 °F - 6.8 °F 12% 30.13 in 10.0 mi Calm Calm - N/A   Mostly Cloudy
11:50 AM 64.4 °F - 6.8 °F 10% 30.10 in 10.0 mi SSE 9.2 mph - N/A   Mostly Cloudy
12:50 PM 66.2 °F - 6.8 °F 10% 30.06 in 10.0 mi South 10.4 mph - N/A   Mostly Cloudy
1:50 PM 69.8 °F - 8.6 °F 9% 30.01 in 10.0 mi WSW 13.8 mph - N/A   Scattered Clouds
3:50 PM 71.6 °F - 8.6 °F 9% 29.94 in 10.0 mi SSE 28.8 mph - N/A   Mostly Cloudy
4:49 PM 71.6 °F - 55.4 °F 57% 29.90 in 10.0 mi SSE 20.7 mph - N/A   Mostly Cloudy
5:50 PM 75.2 °F - 8.6 °F 8% 29.88 in 10.0 mi West 25.3 mph - N/A   Scattered Clouds
10:15 PM 57.2 °F - 14.0 °F 18% 29.95 in 10.0 mi West 15.0 mph - N/A   Clear
10:35 PM 59.0 °F - 14.0 °F 17% 29.96 in 10.0 mi West 16.1 mph - N/A   Clear
10:55 PM 55.4 °F - 14.0 °F 20% 29.97 in 10.0 mi West 12.7 mph - N/A   Clear
11:15 PM 53.6 °F - 14.0 °F 21% 29.97 in 10.0 mi West 12.7 mph - N/A   Clear
11:35 PM 51.8 °F - 12.2 °F 21% 29.97 in 10.0 mi West 11.5 mph - N/A   Clear
11:55 PM 51.8 °F - 14.0 °F 22% 29.98 in 10.0 mi West 13.8 mph - N/A   Clear